Terug naar catalogus

STARLINK-5954

ActiefCommunicatieSSO
NORAD 56318·PAYLOAD·🇺🇸 United States

Gelanceerd Apr 27, 2023 vanaf Vandenberg Space Force Base

Loading…

Volgende Passages (komende 24 uur)

TLE

VersSource: CelesTrak SupGP

Epoch: Sep 15, 2026, 02:50 UTC

1 56318C 23058B   26258.11854167 -.00062015  00000+0 -19254-2 0  2583
2 56318  97.2845 254.9355 0001592  87.7763 119.2346 15.33464887    14

Volg STARLINK-5954 in realtime met AllMySat

Download on the App Store